Llano, CA

8:19 AM PDT on September 27, 2016 (GMT -0700)
Palmdale - Butte

Weather History for KGXA - August, 2013

Change the Weather History Date:

Wednesday, August 7, 2013

  Actual Average (KPMD) Record (KPMD)
Temperature  
Mean Temperature 74 °F 82 °F  
Max Temperature 91 °F 99 °F 110 °F (1997)
Min Temperature 58 °F 66 °F 51 °F (1976)
Degree Days  
Heating Degree Days 0 0  
Month to date heating degree days 0  
Since 1 June heating degree days 7  
Since 1 July heating degree days 0  
Cooling Degree Days 10 17  
Month to date cooling degree days 125  
Year to date cooling degree days 1103  
Since 1 June cooling degree days 933  
Growing Degree Days 24 (Base 50)    
Moisture  
Dew Point 24 °F    
Average Humidity 17    
Maximum Humidity 30    
Minimum Humidity 6    
Precipitation  
Precipitation 0.00 in 0.00 in 0.21 in (1968)
Month to date precipitation 0.02  
Year to date precipitation 5.44  
Snow  
Snow 0.00 in - 0.00 in (1973)
Month to date snowfall  
Since 1 June snowfall  
Since 1 July snowfall  
Snow Depth -    
Sea Level Pressure  
Sea Level Pressure 29.91 in    
Wind  
Wind Speed 10 mph (WSW)    
Max Wind Speed 24 mph    
Max Gust Speed 33 mph    
Visibility 9 miles    
Events      
T = Trace of Precipitation, MM = Missing Value Source: NWS Daily Summary

Daily Weather History Graph

Daily Weather History Graph

Search for Another Location

Airport or City:

Trip Planner

Search our weather history database for the weather conditions in past years. The results will help you decide how hot, cold, wet, or windy it might be!

Date:

Astronomy

Aug. 07, 2013 Rise Set
Actual Time 6:05 AM PDT 7:46 PM PDT
Civil Twilight 5:38 AM PDT 8:13 PM PDT
Nautical Twilight 5:05 AM PDT 8:46 PM PDT
Astronomical Twilight 4:31 AM PDT 9:20 PM PDT
Moon 6:53 AM PDT (8/7) 8:02 PM PDT (8/7)
Length of Visible Light 14h 35m
Length of Day
13h 40m
New Moon, 1% of the Moon is Illuminated
Aug 7
New Moon
Aug 14
First Quarter
Aug 20
Full
Aug 28
Last Quarter
Sep 5
New

Hourly Weather History & Observations

Time (PDT) Temp. Dew Point Humidity Pressure Visibility Wind Dir Wind Speed Gust Speed Precip Events Conditions
12:55 AM 61.0 °F 28.9 °F 30% 29.91 in 10.0 mi SSE 4.6 mph - N/A   Clear
1:55 AM 60.6 °F 28.8 °F 30% 29.91 in 10.0 mi South 4.6 mph - N/A   Clear
2:55 AM 63.9 °F 30.9 °F 29% 29.90 in 10.0 mi SW 5.8 mph - N/A   Mostly Cloudy
3:55 AM 64.0 °F 27.1 °F 25% 29.88 in 10.0 mi SW 4.6 mph - N/A   Mostly Cloudy
4:55 AM 65.8 °F 27.1 °F 23% 29.88 in 10.0 mi SW 8.1 mph - N/A   Clear
5:55 AM 62.4 °F 26.2 °F 25% 29.91 in 10.0 mi South 6.9 mph - N/A   Clear
6:55 AM 58.8 °F 26.2 °F 29% 29.94 in 10.0 mi South 5.8 mph - N/A   Clear
7:55 AM 68.7 °F 26.2 °F 20% 29.95 in 10.0 mi NNW 4.6 mph - N/A   Clear
8:55 AM 74.7 °F 21.7 °F 14% 29.95 in 10.0 mi WNW 4.6 mph - N/A   Partly Cloudy
9:55 AM 80.4 °F 20.5 °F 11% 29.95 in 10.0 mi Variable 6.9 mph - N/A   Clear
10:55 AM 87.3 °F 17.1 °F 7% 29.91 in 3.0 mi West 24.2 mph 33.4 mph N/A   Haze
11:03 AM 87.8 °F 17.6 °F 8% 29.91 in 2.5 mi West 24.2 mph 33.4 mph N/A   Haze
11:13 AM 87.8 °F 12.2 °F 6% 29.91 in 3.0 mi WNW 24.2 mph 33.4 mph N/A   Clear
11:55 AM 88.3 °F 15.4 °F 7% 29.92 in 10.0 mi WNW 19.6 mph 32.2 mph N/A   Clear
12:55 PM 90.1 °F 15.1 °F 6% 29.92 in 10.0 mi West 19.6 mph 29.9 mph N/A   Clear
1:55 PM 90.1 °F 16.3 °F 7% 29.91 in 10.0 mi WNW 23.0 mph 31.1 mph N/A   Clear
2:55 PM 91.8 °F 15.1 °F 6% 29.88 in 10.0 mi West 17.3 mph 28.8 mph N/A   Clear
3:55 PM 91.9 °F 18.0 °F 7% 29.87 in 10.0 mi WSW 17.3 mph 32.2 mph N/A   Clear
4:55 PM 90.0 °F 18.9 °F 7% 29.86 in 10.0 mi West 17.3 mph 33.4 mph N/A   Clear
5:55 PM 87.4 °F 22.6 °F 9% 29.87 in 10.0 mi WNW 16.1 mph 25.3 mph N/A   Clear
6:55 PM 82.2 °F 30.6 °F 15% 29.91 in 10.0 mi WNW 19.6 mph 25.3 mph N/A   Clear
7:55 PM 77.0 °F 35.2 °F 22% 29.90 in 10.0 mi West 11.5 mph 20.7 mph N/A   Clear
8:55 PM 73.6 °F 30.4 °F 20% 29.91 in 10.0 mi WSW 15.0 mph 19.6 mph N/A   Clear
9:55 PM 70.7 °F 30.0 °F 22% 29.91 in 10.0 mi West 9.2 mph 18.4 mph N/A   Clear
10:55 PM 67.3 °F 31.3 °F 26% 29.90 in 10.0 mi SW 8.1 mph - N/A   Clear
11:55 PM 64.9 °F 30.9 °F 28% 29.90 in 10.0 mi WSW 3.5 mph - N/A   Clear